EW1039 Weather Reports


time (UTC)temp
C
wind
direction
speed
KPH
gust
KPH
rain 1hr
cm
rain 24hr
cm
rain mn
cm
humidity
%
barometer
mb
20260502231539 7 287 0.0 0.0 0.00 0.00 0.00 80 1009.4
20260502230037 7 287 0.0 0.0 0.00 0.00 0.00 80 1009.5
20260502224537 8 244 0.0 0.0 0.00 0.00 0.00 79 1009.4
20260502223033 8 244 0.0 0.0 0.00 0.00 0.00 79 1009.2
20260502221531 8 272 0.0 0.0 0.00 0.00 0.00 78 1009.2
20260502220034 8 205 0.0 0.0 0.00 0.00 0.00 75 1009.2
20260502214528 8 204 0.0 0.0 0.00 0.00 0.00 74 1009.0
20260502213027 8 204 0.0 0.0 0.00 0.00 0.00 74 1009.0
20260502211527 9 204 0.0 0.0 0.00 0.00 0.00 72 1009.2
20260502210026 9 204 0.0 0.0 0.00 0.00 0.00 70 1009.1
20260502204534 10 204 0.0 0.0 0.00 0.00 0.00 68 1009.0
20260502203031 10 204 0.0 0.0 0.00 0.00 0.00 67 1009.1
20260502201526 11 251 0.0 0.0 0.00 0.00 0.00 65 1009.1
20260502200043 11 243 0.0 0.0 0.00 0.00 0.00 61 1009.2
20260502194524 12 242 0.0 0.0 0.00 0.00 0.00 60 1009.1
20260502193025 12 244 0.0 0.0 0.00 0.00 0.00 58 1009.0
20260502191523 12 242 0.0 0.0 0.00 0.00 0.00 56 1009.0
20260502190021 12 256 0.0 0.0 0.00 0.00 0.00 56 1008.8
20260502184524 13 268 0.0 0.0 0.00 0.00 0.00 55 1008.9
20260502183021 13 267 0.0 0.0 0.00 0.00 0.00 54 1008.9
20260502181526 13 268 0.0 0.0 0.00 0.00 0.00 52 1008.9
20260502163018 15 261 0.0 16.1 0.00 0.00 0.00 43 1009.3
20260502161512 15 273 6.4 22.5 0.00 0.00 0.00 43 1009.4
20260502151510 15 295 1.6 14.5 0.00 0.00 0.00 37 1010.0
20260502130107 17 317 1.6 16.1 0.00 0.00 0.00 30 1010.3
20260502123055 17 280 0.0 12.9 0.00 0.00 0.00 31 1010.4
20260502121600 17 261 1.6 16.1 0.00 0.00 0.00 30 1010.6
20260502120111 17 220 0.0 16.1 0.00 0.00 0.00 28 1010.7
20260502114556 17 223 8.0 16.1 0.00 0.00 0.00 30 1010.7
20260502113109 17 232 3.2 19.3 0.00 0.00 0.00 30 1010.9
20260502111549 17 256 1.6 19.3 0.00 0.00 0.00 30 1010.9
20260502110049 17 256 3.2 16.1 0.00 0.00 0.00 29 1010.9
20260502104546 17 269 6.4 17.7 0.00 0.00 0.00 29 1011.0
20260502103108 17 245 1.6 19.3 0.00 0.00 0.00 28 1011.1
20260502101550 17 251 3.2 17.7 0.00 0.00 0.00 28 1011.2
20260502071502 12 92 1.6 8.0 0.00 0.00 0.00 54 1012.9
20260502070104 11 82 0.0 0.0 0.00 0.00 0.00 58 1013.2
20260502064557 10 340 0.0 0.0 0.00 0.00 0.00 65 1013.3
20260502063119 8 323 0.0 0.0 0.00 0.00 0.00 66 1013.6
20260502061554 8 221 0.0 0.0 0.00 0.00 0.00 68 1013.7
20260502060058 7 221 0.0 0.0 0.00 0.00 0.00 71 1014.0
20260502054607 7 221 0.0 0.0 0.00 0.00 0.00 70 1014.0
20260502053051 7 221 0.0 0.0 0.00 0.00 0.00 72 1014.0
20260502051549 6 221 0.0 0.0 0.00 0.00 0.00 76 1013.9
20260502050049 6 220 0.0 0.0 0.00 0.00 0.00 77 1014.0
20260502044546 6 220 0.0 0.0 0.00 0.00 0.00 77 1014.2
20260502043056 5 220 0.0 0.0 0.00 0.00 0.00 82 1014.2
20260502041543 5 220 0.0 0.0 0.00 0.00 0.00 80 1014.3
20260502040043 4 220 0.0 0.0 0.00 0.00 0.00 79 1014.5
20260502034538 4 220 0.0 0.0 0.00 0.00 0.00 78 1014.6
20260502033041 4 220 0.0 0.0 0.00 0.00 0.00 77 1014.7
20260502031533 5 220 0.0 0.0 0.00 0.00 0.00 75 1014.8
20260502030032 5 220 0.0 0.0 0.00 0.00 0.00 74 1014.8
20260502024528 5 220 0.0 0.0 0.00 0.00 0.00 72 1015.0
20260502023025 6 220 0.0 0.0 0.00 0.00 0.00 69 1015.3
20260502021520 7 220 0.0 0.0 0.00 0.00 0.00 66 1015.4
20260502020018 7 220 0.0 0.0 0.00 0.00 0.00 67 1015.4
20260502014515 7 220 0.0 0.0 0.00 0.00 0.00 65 1015.6
20260502013011 8 220 0.0 0.0 0.00 0.00 0.00 64 1015.7
20260502011508 8 220 0.0 0.0 0.00 0.00 0.00 62 1015.8
20260502010006 8 220 0.0 0.0 0.00 0.00 0.00 62 1016.1
20260502004505 9 229 0.0 0.0 0.00 0.00 0.00 61 1016.1
20260502003004 8 229 0.0 0.0 0.00 0.00 0.00 63 1016.2
20260502001503 8 236 0.0 0.0 0.00 0.00 0.00 63 1016.2
20260502000001 8 236 0.0 0.0 0.00 0.00 0.00 62 1016.3
20260501234600 9 236 0.0 0.0 0.00 0.00 0.00 61 1016.3
20260501233100 9 251 0.0 0.0 0.00 0.00 0.00 61 1016.4